• Join FlightAware (Why Join?)
  • Login
  • US Flag GB Flag 
22:53 EST


 

Airport Tracker/Info


-or-


 

Live Flight TrackerFlight Track Log ✈ SWA650 ✈ 27-Apr-2013 ✈ KMCO - KBWI

Flight Track Log - Related Links

Times and Time Zones

All times are in EDT time to prevent confusion due to time zone crossing. See the SWA650 flight status page for this flight to view local times or setup timezone preferences in your user account.

Time Position Orientation Groundspeed Altitude Reporting Facility
EDT Latitude Longitude Course Direction KTS MPH feet Rate Location/Type
10:31 28.4333 -81.3000 360° North 160 184 1,100  Level Orlando TRACON
10:32 28.4667 -81.3000 360° North 192 221 2,200 2,280 Climbing Orlando TRACON
10:33 28.5333 -81.3167 348° North 234 269 5,000 2,760 Climbing Orlando TRACON
10:34 28.6000 -81.3167 360° North 275 316 7,600 2,460 Climbing Orlando TRACON
10:35 28.7228 -81.3394 351° North 295 339 11,100 2,340 Climbing Jacksonville Center
10:36 28.8231 -81.3544 353° North 329 379 13,600 2,700 Climbing Jacksonville Center
10:37 28.9275 -81.3672 354° North 361 415 16,600 2,820 Climbing Jacksonville Center
10:38 29.0322 -81.3822 353° North 374 430 19,300 2,400 Climbing Jacksonville Center
10:39 29.1389 -81.3972 353° North 379 436 21,500 1,980 Climbing Jacksonville Center
10:40 29.2536 -81.4050 357° North 390 449 23,300 1,800 Climbing Jacksonville Center
10:41 29.3728 -81.4175 355° North 414 476 25,100 1,800 Climbing Jacksonville Center
10:42 29.4919 -81.4300 355° North 426 490 26,900 1,500 Climbing Jacksonville Center
10:43 29.6131 -81.4400 356° North 431 496 28,200 1,500 Climbing Jacksonville Center
10:44 29.7425 -81.4431 359° North 446 513 29,900 1,800 Climbing Jacksonville Center
10:45 29.8658 -81.4411 North 446 513 31,900 1,860 Climbing Jacksonville Center
10:46 29.9869 -81.4394 North 435 501 33,700 1,500 Climbing Jacksonville Center
10:47 30.0975 -81.4400 360° North 435 501 35,000 600 Climbing Jacksonville Center
10:48 30.2144 -81.4383 North 435 501 35,000  Level Jacksonville Center
10:49 30.3333 -81.4364 North 435 501 35,000  Level Jacksonville Center
10:50 30.4525 -81.4372 360° North 430 495 35,000  Level Jacksonville Center
10:51 30.5714 -81.4378 360° North 424 488 35,000  Level Jacksonville Center
10:52 30.6903 -81.4358 North 424 488 35,000  Level Jacksonville Center
10:53 30.8094 -81.4389 359° North 424 488 35,000  Level Jacksonville Center
10:54 30.9283 -81.4369 North 424 488 35,000  Level Jacksonville Center
10:55 31.0475 -81.4378 360° North 424 488 35,000  Level Jacksonville Center
10:56 31.1664 -81.4383 360° North 424 488 35,000  Level Jacksonville Center
10:57 31.2853 -81.4292 North 419 482 35,000 300 Level Jacksonville Center
10:58 31.4164 -81.3931 13° North 429 494 35,700 900 Climbing Jacksonville Center
10:59 31.5206 -81.3644 13° North 429 494 36,900 600 Climbing Jacksonville Center
11:00 31.6431 -81.2992 24° Northeast 429 494 37,000  Climbing Jacksonville Center
11:01 31.7483 -81.2117 35° Northeast 437 503 37,000  Level Jacksonville Center
11:02 31.8392 -81.1342 36° Northeast 447 514 37,000  Level Jacksonville Center
11:03 31.9525 -81.0414 35° Northeast 453 521 37,000  Level Jacksonville Center
11:04 32.0453 -80.9636 35° Northeast 453 521 37,000  Level Jacksonville Center
11:05 32.1586 -80.8681 36° Northeast 453 521 37,000  Level Jacksonville Center
11:06 32.2597 -80.7847 35° Northeast 453 521 37,000  Level Jacksonville Center
11:07 32.3522 -80.7039 36° Northeast 453 521 37,000  Level Jacksonville Center
11:08 32.4550 -80.6153 36° Northeast 453 521 37,000  Level Jacksonville Center
11:09 32.5600 -80.5264 36° Northeast 448 516 37,000  Level Jacksonville Center
11:10 32.6625 -80.4372 36° Northeast 448 516 37,000  Level Jacksonville Center
11:11 32.7653 -80.3481 36° Northeast 448 516 37,000  Level Jacksonville Center
11:12 32.8678 -80.2586 36° Northeast 448 516 37,000  Level Jacksonville Center
11:13 32.9764 -80.1689 35° Northeast 454 522 37,000  Level Jacksonville Center
11:14 33.0889 -80.0661 37° Northeast 460 529 37,000  Level Jacksonville Center
11:15 33.1956 -79.9758 35° Northeast 465 535 37,000  Level Jacksonville Center
11:16 33.2956 -79.8881 36° Northeast 465 535 37,000  Level Jacksonville Center
11:17 33.3997 -79.7950 37° Northeast 465 535 37,000  Level Jacksonville Center
11:18 33.5042 -79.7067 35° Northeast 465 535 37,000  Level Jacksonville Center
11:19 33.6081 -79.6158 36° Northeast 465 535 37,000  Level Jacksonville Center
11:20 33.7081 -79.5222 38° Northeast 460 529 37,000  Level Jacksonville Center
11:21 33.8144 -79.4456 31° Northeast 460 529 37,000  Level Jacksonville Center
11:22 33.9092 -79.3994 22° Northeast 427 491 37,000  Level Jacksonville Center
11:24 34.0958 -79.2958 25° Northeast 450 518 37,000  Level Washington Center
11:25 34.1997 -79.2378 25° Northeast 440 506 37,000  Level Washington Center
11:26 34.3017 -79.1819 24° Northeast 432 497 37,000  Level Washington Center
11:27 34.4078 -79.1186 26° Northeast 427 491 37,000  Level Washington Center
11:28 34.5136 -79.0625 24° Northeast 422 486 37,000  Level Washington Center
11:29 34.6219 -78.9992 26° Northeast 422 486 37,000  Level Washington Center
11:30 34.7281 -78.9403 25° Northeast 422 486 37,000  Level Washington Center
11:31 34.8339 -78.8814 25° Northeast 422 486 37,000  Level Washington Center
11:32 34.9419 -78.8225 24° Northeast 422 486 37,000  Level Washington Center
11:33 35.0500 -78.7608 25° Northeast 422 486 37,000  Level Washington Center
11:34 35.1539 -78.7014 25° Northeast 422 486 37,000  Level Washington Center
11:35 35.2597 -78.6419 25° Northeast 422 486 37,000  Level Washington Center
11:36 35.3825 -78.5728 25° Northeast 424 488 37,000  Level Washington Center
11:37 35.4842 -78.5100 27° Northeast 424 488 37,000  Level Washington Center
11:38 35.5942 -78.4503 24° Northeast 424 488 37,000  Level Washington Center
11:39 35.6914 -78.3950 25° Northeast 424 488 37,000  Level Washington Center
11:40 35.7972 -78.3322 26° Northeast 424 488 37,000  Level Washington Center
11:41 35.8922 -78.2789 24° Northeast 418 481 37,000  Level Washington Center
11:42 36.0192 -78.2036 26° Northeast 418 481 37,000  Level Washington Center
11:43 36.1228 -78.1428 25° Northeast 418 481 37,000 -420 Level Washington Center
11:44 36.2303 -78.0819 25° Northeast 418 481 36,200 -1,440 Descending Washington Center
11:45 36.3339 -78.0183 26° Northeast 413 475 34,100 -2,100 Descending Washington Center
11:46 36.4331 -77.9619 25° Northeast 402 463 32,100 -1,980 Descending Washington Center
11:47 36.5322 -77.9028 26° Northeast 396 456 30,200 -1,380 Descending Washington Center
11:48 36.6294 -77.8436 26° Northeast 385 443 29,300 -960 Descending Washington Center
11:49 36.7264 -77.7869 25° Northeast 385 443 28,300 -840 Descending Washington Center
11:50 36.8256 -77.7275 26° Northeast 385 443 27,700 -840 Descending Washington Center
11:51 36.9225 -77.6703 25° Northeast 385 443 26,700 -1,020 Descending Washington Center
11:52 37.0153 -77.6131 26° Northeast 385 443 25,700 -1,020 Descending Washington Center
11:53 37.1081 -77.5581 25° Northeast 380 437 24,700 -1,020 Descending Washington Center
11:54 37.2006 -77.5031 25° Northeast 375 432 23,700 -900 Descending Washington Center
11:55 37.2933 -77.4481 25° Northeast 370 426 23,000 -360 Descending Washington Center
11:56 37.3903 -77.3903 25° Northeast 365 420 23,000 -360 Level Washington Center
11:57 37.4850 -77.3322 26° Northeast 365 420 22,400 -840 Descending Washington Center
11:58 37.5792 -77.3081 11° North 354 407 21,400 -1,020 Descending Washington Center
11:59 37.6733 -77.2867 10° North 339 390 20,400 -1,020 Descending Washington Center
12:00 37.7694 -77.2653 10° North 339 390 19,500 -720 Descending Washington Center
12:01 37.8678 -77.2464 North 344 396 19,000 -300 Descending Washington Center
12:02 37.9639 -77.2247 10° North 350 403 19,000  Level Washington Center
12:03 38.0644 -77.2083 North 355 409 19,000 -180 Level Washington Center
12:04 38.1606 -77.1894 North 355 409 18,700 -540 Descending Washington Center
12:05 38.2442 -77.1647 13° North 333 383 18,000 -1,140 Descending Washington Center
12:06 38.3131 -77.1556 North 321 369 16,400 -1,740 Descending Washington Center
12:07 38.4078 -77.1047 23° Northeast 305 351 14,600 -1,740 Descending Washington Center
12:08 38.4711 -77.0317 42° Northeast 294 338 13,000 -1,380 Descending Washington Center
12:09 38.5303 -76.9586 44° Northeast 294 338 12,000 -840 Descending Washington Center
12:10 38.5894 -76.8878 43° Northeast 294 338 11,300 -960 Descending Washington Center
12:11 38.6467 -76.8169 44° Northeast 289 333 10,100 -1,200 Descending Washington Center
12:12 38.6992 -76.7514 44° Northeast 270 311 9,000 -960 Descending Washington Center
12:13 38.7356 -76.6722 59° Northeast 264 304 8,200 -1,080 Descending Washington Center
12:14 38.7833 -76.5833 55° Northeast 261 300 6,800 -1,200 Descending Potomac TRACON
12:15 38.8333 -76.5500 27° Northeast 251 289 5,800 -1,140 Descending Potomac TRACON
12:16 38.9000 -76.5667 349° North 243 280 4,700 -1,020 Descending Potomac TRACON
12:17 38.9667 -76.5833 349° North 239 275 3,900 -780 Descending Potomac TRACON
12:18 39.0167 -76.6000 345° North 235 270 3,200 -1,020 Descending Potomac TRACON
12:19 39.0833 -76.6000 360° North 210 242 1,800 -1,140 Descending Potomac TRACON
12:20 39.1333 -76.6333 333° Northwest 170 196 1,000 -900 Descending Potomac TRACON
12:22 39.1667 -76.6667 339° North  Level FlightAware Approximate
12:29 39.1754 -76.6683 339° North  Level Estimated
12:30 39.1754 -76.6683 339° North  Level Estimated
12:31 39.1754 -76.6683 339° North  Level Estimated
12:32 39.1754 -76.6683 339° North  Level Estimated